Time,TemperatureF,DewpointF,PressureIn,WindDirection,WindDirectionDegrees,WindSpeedMPH,WindSpeedGustMPH,Humidity,HourlyPrecipIn,Conditions,Clouds,dailyrainin,SoftwareType,DateUTC
2013-09-30 00:03:00,59.0,36.0,29.97,West,264,0.0,0.0,42,0.00,,---,0.00,VWS V14.01,2013-09-30 07:03:00,
2013-09-30 00:08:00,59.0,36.0,29.97,West,264,0.0,0.0,42,0.00,,---,0.00,VWS V14.01,2013-09-30 07:08:00,
2013-09-30 00:13:00,59.2,36.1,29.97,West,264,0.0,0.0,42,0.00,,---,0.00,VWS V14.01,2013-09-30 07:13:00,
2013-09-30 00:18:00,59.4,36.3,29.97,West,264,0.0,0.0,42,0.00,,---,0.00,VWS V14.01,2013-09-30 07:18:00,
2013-09-30 00:23:00,59.4,36.3,29.97,West,264,0.0,0.0,42,0.00,,---,0.00,VWS V14.01,2013-09-30 07:23:00,
2013-09-30 00:28:00,59.5,36.5,29.97,West,264,0.0,0.0,42,0.00,,---,0.00,VWS V14.01,2013-09-30 07:28:00,
2013-09-30 00:33:00,59.2,36.1,29.97,West,264,0.0,0.0,42,0.00,,---,0.00,VWS V14.01,2013-09-30 07:33:00,
2013-09-30 00:38:00,59.4,36.3,29.97,West,264,0.0,0.0,42,0.00,,---,0.00,VWS V14.01,2013-09-30 07:38:00,
2013-09-30 00:43:00,59.9,36.8,29.97,West,263,0.0,0.0,42,0.00,,---,0.00,VWS V14.01,2013-09-30 07:43:00,
2013-09-30 00:48:00,60.1,36.9,29.97,West,263,0.0,0.0,42,0.00,,---,0.00,VWS V14.01,2013-09-30 07:48:00,
2013-09-30 00:53:00,60.1,36.9,29.97,West,263,0.0,0.0,42,0.00,,---,0.00,VWS V14.01,2013-09-30 07:53:00,
2013-09-30 00:58:00,59.7,36.6,29.97,West,263,0.0,0.0,42,0.00,,---,0.00,VWS V14.01,2013-09-30 07:58:00,
2013-09-30 01:03:00,59.2,36.1,29.97,West,263,0.0,0.0,42,0.00,,---,0.00,VWS V14.01,2013-09-30 08:03:00,
2013-09-30 01:08:00,58.8,35.8,29.97,West,263,0.0,0.0,42,0.00,,---,0.00,VWS V14.01,2013-09-30 08:08:00,
2013-09-30 01:13:00,57.7,34.8,29.97,West,263,0.0,0.0,42,0.00,,---,0.00,VWS V14.01,2013-09-30 08:13:00,
2013-09-30 01:18:00,57.6,34.7,29.97,West,263,0.0,0.0,42,0.00,,---,0.00,VWS V14.01,2013-09-30 08:18:00,
2013-09-30 01:23:00,57.2,34.3,29.97,West,263,0.0,0.0,42,0.00,,---,0.00,VWS V14.01,2013-09-30 08:23:00,
2013-09-30 01:28:00,57.0,34.2,29.97,West,263,0.0,0.0,42,0.00,,---,0.00,VWS V14.01,2013-09-30 08:28:00,
2013-09-30 01:33:00,57.0,34.2,29.97,West,263,0.0,0.0,42,0.00,,---,0.00,VWS V14.01,2013-09-30 08:33:00,
2013-09-30 01:38:00,57.0,34.2,29.97,West,263,0.0,0.0,42,0.00,,---,0.00,VWS V14.01,2013-09-30 08:38:00,
2013-09-30 01:44:00,56.7,33.8,29.97,West,263,0.0,0.0,42,0.00,,---,0.00,VWS V14.01,2013-09-30 08:44:00,
2013-09-30 01:49:00,56.3,33.5,29.97,West,263,0.0,0.0,42,0.00,,---,0.00,VWS V14.01,2013-09-30 08:49:00,
2013-09-30 01:54:00,55.6,32.9,29.97,West,263,0.0,0.0,42,0.00,,---,0.00,VWS V14.01,2013-09-30 08:54:00,
2013-09-30 01:59:00,55.6,32.9,29.97,West,263,0.0,0.0,42,0.00,,---,0.00,VWS V14.01,2013-09-30 08:59:00,
2013-09-30 02:04:00,55.4,32.7,29.97,West,264,0.0,0.0,42,0.00,,---,0.00,VWS V14.01,2013-09-30 09:04:00,
2013-09-30 02:09:00,55.8,33.0,29.97,West,263,0.0,0.0,42,0.00,,---,0.00,VWS V14.01,2013-09-30 09:09:00,
2013-09-30 02:14:00,55.9,33.2,29.97,West,263,0.0,0.0,42,0.00,,---,0.00,VWS V14.01,2013-09-30 09:14:00,
2013-09-30 02:19:00,56.1,33.4,29.97,West,263,0.0,0.0,42,0.00,,---,0.00,VWS V14.01,2013-09-30 09:19:00,
2013-09-30 02:24:00,55.9,33.2,29.97,West,263,0.0,0.0,42,0.00,,---,0.00,VWS V14.01,2013-09-30 09:24:00,
2013-09-30 02:29:00,55.9,33.2,29.97,West,263,0.0,0.0,42,0.00,,---,0.00,VWS V14.01,2013-09-30 09:29:00,
2013-09-30 02:34:00,55.0,33.0,29.97,West,263,0.0,0.0,43,0.00,,---,0.00,VWS V14.01,2013-09-30 09:34:00,
2013-09-30 02:39:00,54.9,32.8,29.97,West,263,0.0,0.0,43,0.00,,---,0.00,VWS V14.01,2013-09-30 09:39:00,
2013-09-30 02:44:00,54.9,32.8,29.97,West,263,0.0,0.0,43,0.00,,---,0.00,VWS V14.01,2013-09-30 09:44:00,
2013-09-30 02:49:00,54.9,32.8,29.97,West,263,0.0,0.0,43,0.00,,---,0.00,VWS V14.01,2013-09-30 09:49:00,
2013-09-30 02:54:00,54.7,32.6,29.97,West,263,0.0,0.0,43,0.00,,---,0.00,VWS V14.01,2013-09-30 09:54:00,
2013-09-30 02:59:00,54.3,32.3,29.97,West,263,0.0,0.0,43,0.00,,---,0.00,VWS V14.01,2013-09-30 09:59:00,
2013-09-30 03:04:00,53.8,31.8,29.97,West,263,0.0,0.0,43,0.00,,---,0.00,VWS V14.01,2013-09-30 10:04:00,
2013-09-30 03:09:00,53.8,31.8,29.97,West,263,0.0,0.0,43,0.00,,---,0.00,VWS V14.01,2013-09-30 10:09:00,
2013-09-30 03:14:00,53.8,31.8,29.97,West,263,0.0,0.0,43,0.00,,---,0.00,VWS V14.01,2013-09-30 10:14:00,
2013-09-30 03:19:00,54.0,32.0,29.97,West,263,0.0,0.0,43,0.00,,---,0.00,VWS V14.01,2013-09-30 10:19:00,
2013-09-30 03:24:00,53.8,31.8,29.97,West,263,0.0,0.0,43,0.00,,---,0.00,VWS V14.01,2013-09-30 10:24:00,
2013-09-30 03:29:00,53.6,31.7,29.97,West,263,0.0,0.0,43,0.00,,---,0.00,VWS V14.01,2013-09-30 10:29:00,
2013-09-30 03:34:00,54.0,32.0,29.97,West,263,0.0,0.0,43,0.00,,---,0.00,VWS V14.01,2013-09-30 10:34:00,
2013-09-30 03:39:00,54.1,32.2,29.97,West,263,0.0,0.0,43,0.00,,---,0.00,VWS V14.01,2013-09-30 10:39:00,
2013-09-30 03:44:00,53.6,31.7,29.97,West,263,0.0,0.0,43,0.00,,---,0.00,VWS V14.01,2013-09-30 10:44:00,
2013-09-30 03:49:00,53.8,31.8,29.97,West,263,0.0,0.0,43,0.00,,---,0.00,VWS V14.01,2013-09-30 10:49:00,
2013-09-30 03:54:00,53.6,31.7,29.97,West,263,0.0,0.0,43,0.00,,---,0.00,VWS V14.01,2013-09-30 10:54:00,
2013-09-30 03:59:00,52.7,30.9,29.97,West,263,0.0,0.0,43,0.00,,---,0.00,VWS V14.01,2013-09-30 10:59:00,
2013-09-30 04:05:00,51.8,30.0,29.97,West,263,0.0,0.0,43,0.00,,---,0.00,VWS V14.01,2013-09-30 11:05:00,
2013-09-30 04:10:00,51.8,30.0,29.97,West,263,0.0,0.0,43,0.00,,---,0.00,VWS V14.01,2013-09-30 11:10:00,
2013-09-30 04:15:00,51.6,30.4,29.97,West,263,0.0,0.0,44,0.00,,---,0.00,VWS V14.01,2013-09-30 11:15:00,
2013-09-30 04:20:00,51.3,30.1,29.97,West,263,0.0,0.0,44,0.00,,---,0.00,VWS V14.01,2013-09-30 11:20:00,
2013-09-30 04:25:00,51.4,30.3,29.97,West,263,0.0,0.0,44,0.00,,---,0.00,VWS V14.01,2013-09-30 11:25:00,
2013-09-30 04:30:00,52.0,30.2,29.97,West,263,0.0,0.0,43,0.00,,---,0.00,VWS V14.01,2013-09-30 11:30:00,
2013-09-30 04:35:00,52.3,30.5,29.97,West,263,0.0,0.0,43,0.00,,---,0.00,VWS V14.01,2013-09-30 11:35:00,
2013-09-30 04:40:00,52.0,30.2,29.97,West,263,0.0,0.0,43,0.00,,---,0.00,VWS V14.01,2013-09-30 11:40:00,
2013-09-30 04:45:00,51.8,30.0,29.97,West,263,0.0,0.0,43,0.00,,---,0.00,VWS V14.01,2013-09-30 11:45:00,
2013-09-30 04:50:00,51.1,30.0,29.97,West,263,0.0,0.0,44,0.00,,---,0.00,VWS V14.01,2013-09-30 11:50:00,
2013-09-30 04:55:00,49.8,28.8,29.97,West,263,0.0,0.0,44,0.00,,---,0.00,VWS V14.01,2013-09-30 11:55:00,
2013-09-30 05:00:00,49.5,28.5,29.97,West,263,0.0,0.0,44,0.00,,---,0.00,VWS V14.01,2013-09-30 12:00:00,
2013-09-30 05:05:00,49.5,28.5,29.97,West,263,0.0,0.0,44,0.00,,---,0.00,VWS V14.01,2013-09-30 12:05:00,
2013-09-30 05:10:00,50.7,29.6,29.97,West,263,0.0,0.0,44,0.00,,---,0.00,VWS V14.01,2013-09-30 12:10:00,
2013-09-30 05:15:00,51.1,30.0,29.97,West,263,0.0,0.0,44,0.00,,---,0.00,VWS V14.01,2013-09-30 12:15:00,
2013-09-30 05:20:00,51.1,30.0,29.97,West,263,0.0,0.0,44,0.00,,---,0.00,VWS V14.01,2013-09-30 12:20:00,
2013-09-30 05:25:00,51.1,30.0,29.97,West,263,0.0,0.0,44,0.00,,---,0.00,VWS V14.01,2013-09-30 12:25:00,
2013-09-30 05:30:00,51.1,30.0,29.97,West,263,0.0,0.0,44,0.00,,---,0.00,VWS V14.01,2013-09-30 12:30:00,
2013-09-30 05:35:00,50.9,29.8,29.97,West,263,0.0,0.0,44,0.00,,---,0.00,VWS V14.01,2013-09-30 12:35:00,
2013-09-30 05:40:00,50.5,29.5,29.97,West,263,0.0,0.0,44,0.00,,---,0.00,VWS V14.01,2013-09-30 12:40:00,
2013-09-30 05:45:00,50.2,29.1,29.97,West,263,0.0,0.0,44,0.00,,---,0.00,VWS V14.01,2013-09-30 12:45:00,
2013-09-30 05:50:00,50.0,29.0,29.97,West,263,0.0,0.0,44,0.00,,---,0.00,VWS V14.01,2013-09-30 12:50:00,
2013-09-30 05:55:00,49.6,28.6,29.97,West,263,0.0,0.0,44,0.00,,---,0.00,VWS V14.01,2013-09-30 12:55:00,
2013-09-30 06:00:00,49.3,28.3,29.97,West,263,0.0,0.0,44,0.00,,---,0.00,VWS V14.01,2013-09-30 13:00:00,
2013-09-30 06:05:00,48.9,28.0,29.97,West,263,0.0,0.0,44,0.00,,---,0.00,VWS V14.01,2013-09-30 13:05:00,
2013-09-30 06:10:00,48.7,27.8,29.97,West,263,0.0,0.0,44,0.00,,---,0.00,VWS V14.01,2013-09-30 13:10:00,
2013-09-30 06:15:00,48.9,28.0,29.97,West,263,0.0,0.0,44,0.00,,---,0.00,VWS V14.01,2013-09-30 13:15:00,
2013-09-30 06:20:00,49.1,28.1,29.97,West,263,0.0,0.0,44,0.00,,---,0.00,VWS V14.01,2013-09-30 13:20:00,
2013-09-30 06:25:00,49.3,28.3,29.97,West,263,0.0,0.0,44,0.00,,---,0.00,VWS V14.01,2013-09-30 13:25:00,
2013-09-30 06:30:00,49.3,28.3,29.97,West,263,0.0,0.0,44,0.00,,---,0.00,VWS V14.01,2013-09-30 13:30:00,
2013-09-30 06:35:00,48.9,28.0,29.97,West,263,0.0,0.0,44,0.00,,---,0.00,VWS V14.01,2013-09-30 13:35:00,
2013-09-30 06:40:00,49.1,28.1,29.97,West,263,0.0,0.0,44,0.00,,---,0.00,VWS V14.01,2013-09-30 13:40:00,
2013-09-30 06:45:00,49.3,28.3,29.97,West,263,0.0,0.0,44,0.00,,---,0.00,VWS V14.01,2013-09-30 13:45:00,
2013-09-30 06:50:00,50.0,29.0,29.97,West,263,0.0,0.0,44,0.00,,---,0.00,VWS V14.01,2013-09-30 13:50:00,
2013-09-30 06:55:00,50.9,29.8,29.97,West,263,0.0,0.0,44,0.00,,---,0.00,VWS V14.01,2013-09-30 13:55:00,
2013-09-30 07:00:00,51.6,30.4,29.97,West,263,0.0,0.0,44,0.00,,---,0.00,VWS V14.01,2013-09-30 14:00:00,
2013-09-30 07:05:00,52.3,30.5,29.97,West,263,0.0,0.0,43,0.00,,---,0.00,VWS V14.01,2013-09-30 14:05:00,
2013-09-30 07:11:00,52.9,31.0,29.97,West,263,0.0,0.0,43,0.00,,---,0.00,VWS V14.01,2013-09-30 14:11:00,
2013-09-30 07:16:00,53.2,31.3,29.97,West,264,0.0,0.0,43,0.00,,---,0.00,VWS V14.01,2013-09-30 14:16:00,
2013-09-30 07:21:00,54.5,32.5,29.97,WNW,298,0.0,0.0,43,0.00,,---,0.00,VWS V14.01,2013-09-30 14:21:00,
2013-09-30 07:26:00,55.2,33.1,29.97,WNW,293,0.0,0.0,43,0.00,,---,0.00,VWS V14.01,2013-09-30 14:26:00,
2013-09-30 07:31:00,55.9,33.2,29.97,WNW,294,2.7,2.7,42,0.00,,---,0.00,VWS V14.01,2013-09-30 14:31:00,
2013-09-30 07:36:00,56.5,33.7,29.97,WNW,294,0.0,0.0,42,0.00,,---,0.00,VWS V14.01,2013-09-30 14:36:00,
2013-09-30 07:41:00,56.7,33.8,29.97,WNW,297,0.0,0.0,42,0.00,,---,0.00,VWS V14.01,2013-09-30 14:41:00,
2013-09-30 07:46:00,57.7,34.8,29.97,NW,306,0.0,0.0,42,0.00,,---,0.00,VWS V14.01,2013-09-30 14:46:00,
2013-09-30 07:51:00,58.3,35.3,29.97,NW,310,0.0,0.0,42,0.00,,---,0.00,VWS V14.01,2013-09-30 14:51:00,
2013-09-30 07:56:00,58.8,35.8,30.00,NW,305,0.0,0.0,42,0.00,,---,0.00,VWS V14.01,2013-09-30 14:56:00,
2013-09-30 08:01:00,59.2,36.1,30.00,NW,311,0.0,0.0,42,0.00,,---,0.00,VWS V14.01,2013-09-30 15:01:00,
2013-09-30 08:06:00,59.2,36.1,30.00,WNW,296,0.0,0.0,42,0.00,,---,0.00,VWS V14.01,2013-09-30 15:06:00,
2013-09-30 08:11:00,60.6,37.4,30.00,WNW,301,0.0,0.0,42,0.00,,---,0.00,VWS V14.01,2013-09-30 15:11:00,
2013-09-30 08:16:00,61.2,37.3,30.00,NW,316,0.0,0.0,41,0.00,,---,0.00,VWS V14.01,2013-09-30 15:16:00,
2013-09-30 08:21:00,61.7,37.8,30.00,NW,324,0.0,0.0,41,0.00,,---,0.00,VWS V14.01,2013-09-30 15:21:00,
2013-09-30 08:26:00,62.2,38.3,30.00,WNW,297,0.0,0.0,41,0.00,,---,0.00,VWS V14.01,2013-09-30 15:26:00,
2013-09-30 08:31:00,62.8,38.8,30.00,WNW,301,0.0,0.0,41,0.00,,---,0.00,VWS V14.01,2013-09-30 15:31:00,
2013-09-30 08:36:00,63.5,39.4,30.00,NW,312,0.0,0.0,41,0.00,,---,0.00,VWS V14.01,2013-09-30 15:36:00,
2013-09-30 08:41:00,63.9,39.7,30.00,NNW,334,0.0,0.0,41,0.00,,---,0.00,VWS V14.01,2013-09-30 15:41:00,
2013-09-30 08:46:00,64.0,39.9,30.00,NNW,327,0.0,0.0,41,0.00,,---,0.00,VWS V14.01,2013-09-30 15:46:00,
2013-09-30 08:51:00,64.6,39.7,30.00,WNW,296,0.0,0.0,40,0.00,,---,0.00,VWS V14.01,2013-09-30 15:51:00,
2013-09-30 08:56:00,64.8,39.9,30.00,NNW,328,0.0,0.0,40,0.00,,---,0.00,VWS V14.01,2013-09-30 15:56:00,
2013-09-30 09:02:00,64.8,39.9,30.00,NNW,335,0.0,0.0,40,0.00,,---,0.00,VWS V14.01,2013-09-30 16:02:00,
2013-09-30 09:07:00,65.7,40.7,30.00,NNW,332,0.0,0.0,40,0.00,,---,0.00,VWS V14.01,2013-09-30 16:07:00,
2013-09-30 09:12:00,66.0,41.0,30.00,WNW,297,0.0,0.0,40,0.00,,---,0.00,VWS V14.01,2013-09-30 16:12:00,
2013-09-30 09:17:00,66.0,41.0,30.00,NNW,331,0.0,0.0,40,0.00,,---,0.00,VWS V14.01,2013-09-30 16:17:00,
2013-09-30 09:22:00,67.1,42.0,30.00,NNW,330,0.0,0.0,40,0.00,,---,0.00,VWS V14.01,2013-09-30 16:22:00,
2013-09-30 09:27:00,67.5,42.3,30.00,NNW,337,0.0,0.0,40,0.00,,---,0.00,VWS V14.01,2013-09-30 16:27:00,
2013-09-30 09:32:00,67.8,42.6,30.00,NW,309,0.0,0.0,40,0.00,,---,0.00,VWS V14.01,2013-09-30 16:32:00,
2013-09-30 09:37:00,68.0,42.8,30.00,WNW,283,0.0,0.0,40,0.00,,---,0.00,VWS V14.01,2013-09-30 16:37:00,
2013-09-30 09:42:00,68.2,43.0,30.00,NW,324,0.0,0.0,40,0.00,,---,0.00,VWS V14.01,2013-09-30 16:42:00,
2013-09-30 09:47:00,68.5,43.3,30.00,NNW,329,0.0,0.0,40,0.00,,---,0.00,VWS V14.01,2013-09-30 16:47:00,
2013-09-30 09:52:00,69.1,43.8,30.00,NNW,329,0.0,0.0,40,0.00,,---,0.00,VWS V14.01,2013-09-30 16:52:00,
2013-09-30 09:57:00,69.6,44.2,30.00,NW,326,0.0,0.0,40,0.00,,---,0.00,VWS V14.01,2013-09-30 16:57:00,
2013-09-30 10:02:00,70.0,43.9,30.00,NNW,334,0.0,0.0,39,0.00,,---,0.00,VWS V14.01,2013-09-30 17:02:00,
2013-09-30 10:07:00,70.3,44.2,30.00,NNW,343,0.0,0.0,39,0.00,,---,0.00,VWS V14.01,2013-09-30 17:07:00,
2013-09-30 10:12:00,70.5,44.4,30.00,North,353,0.0,0.0,39,0.00,,---,0.00,VWS V14.01,2013-09-30 17:12:00,
2013-09-30 10:18:00,70.7,44.5,30.00,North,350,0.0,0.0,39,0.00,,---,0.00,VWS V14.01,2013-09-30 17:18:00,
2013-09-30 10:23:00,70.7,44.5,30.00,ENE,73,0.0,0.0,39,0.00,,---,0.00,VWS V14.01,2013-09-30 17:23:00,
2013-09-30 10:28:00,70.7,44.5,29.97,NE,52,0.0,0.0,39,0.00,,---,0.00,VWS V14.01,2013-09-30 17:28:00,
2013-09-30 10:33:00,72.5,46.2,29.97,ENE,75,0.0,0.0,39,0.00,,---,0.00,VWS V14.01,2013-09-30 17:33:00,
2013-09-30 10:38:00,72.9,46.5,29.97,NNW,340,0.0,0.0,39,0.00,,---,0.00,VWS V14.01,2013-09-30 17:38:00,
2013-09-30 10:43:00,73.0,46.6,29.97,North,8,0.0,0.0,39,0.00,,---,0.00,VWS V14.01,2013-09-30 17:43:00,
2013-09-30 10:48:00,73.4,46.3,29.97,North,8,0.0,0.0,38,0.00,,---,0.00,VWS V14.01,2013-09-30 17:48:00,
2013-09-30 10:54:00,73.2,46.8,29.97,North,8,0.0,0.0,39,0.00,,---,0.00,VWS V14.01,2013-09-30 17:54:00,
2013-09-30 10:59:00,73.4,46.3,29.97,South,182,0.0,0.0,38,0.00,,---,0.00,VWS V14.01,2013-09-30 17:59:00,
2013-09-30 11:04:00,73.6,46.4,29.97,SSW,212,0.0,0.0,38,0.00,,---,0.00,VWS V14.01,2013-09-30 18:04:00,
2013-09-30 11:09:00,73.9,46.8,29.97,North,350,3.1,3.6,38,0.00,,---,0.00,VWS V14.01,2013-09-30 18:09:00,
2013-09-30 11:14:00,75.0,47.7,29.97,North,3,0.0,0.0,38,0.00,,---,0.00,VWS V14.01,2013-09-30 18:14:00,
2013-09-30 11:19:00,75.4,48.0,29.97,NW,316,0.0,0.0,38,0.00,,---,0.00,VWS V14.01,2013-09-30 18:19:00,
2013-09-30 11:24:00,75.7,48.4,29.97,NW,322,0.0,0.0,38,0.00,,---,0.00,VWS V14.01,2013-09-30 18:24:00,
2013-09-30 11:29:00,75.7,48.4,29.97,NNE,25,0.0,0.0,38,0.00,,---,0.00,VWS V14.01,2013-09-30 18:29:00,
2013-09-30 11:34:00,75.7,48.4,29.97,East,88,0.0,0.0,38,0.00,,---,0.00,VWS V14.01,2013-09-30 18:34:00,
2013-09-30 11:39:00,77.0,49.5,29.97,NNE,29,0.0,0.0,38,0.00,,---,0.00,VWS V14.01,2013-09-30 18:39:00,
2013-09-30 11:44:00,77.2,49.6,29.94,NE,37,0.0,0.0,38,0.00,,---,0.00,VWS V14.01,2013-09-30 18:44:00,
2013-09-30 11:49:00,77.7,50.1,29.94,North,357,3.1,3.1,38,0.00,,---,0.00,VWS V14.01,2013-09-30 18:49:00,
2013-09-30 11:54:00,77.7,50.1,29.94,NNW,335,0.0,0.0,38,0.00,,---,0.00,VWS V14.01,2013-09-30 18:54:00,
2013-09-30 11:59:00,78.4,50.8,29.94,ENE,66,0.0,0.0,38,0.00,,---,0.00,VWS V14.01,2013-09-30 18:59:00,
2013-09-30 12:04:00,78.4,50.8,29.94,NE,46,0.0,0.0,38,0.00,,---,0.00,VWS V14.01,2013-09-30 19:04:00,
2013-09-30 12:09:00,78.6,50.9,29.94,East,101,0.0,0.0,38,0.00,,---,0.00,VWS V14.01,2013-09-30 19:09:00,
2013-09-30 12:14:00,79.0,50.5,29.94,NNE,25,2.7,2.7,37,0.00,,---,0.00,VWS V14.01,2013-09-30 19:14:00,
2013-09-30 12:19:00,79.2,50.7,29.94,ENE,61,0.0,0.0,37,0.00,,---,0.00,VWS V14.01,2013-09-30 19:19:00,
2013-09-30 12:24:00,79.2,50.7,29.94,NNE,16,0.0,4.9,37,0.00,,---,0.00,VWS V14.01,2013-09-30 19:24:00,
2013-09-30 12:29:00,79.0,50.5,29.94,East,93,0.0,0.0,37,0.00,,---,0.00,VWS V14.01,2013-09-30 19:29:00,
2013-09-30 12:34:00,79.3,50.8,29.94,ENE,73,0.0,0.0,37,0.00,,---,0.00,VWS V14.01,2013-09-30 19:34:00,
2013-09-30 12:39:00,79.9,51.3,29.94,ESE,109,4.9,4.9,37,0.00,,---,0.00,VWS V14.01,2013-09-30 19:39:00,
2013-09-30 12:44:00,80.2,51.6,29.94,SE,127,0.0,4.9,37,0.00,,---,0.00,VWS V14.01,2013-09-30 19:44:00,
2013-09-30 12:49:00,80.2,51.6,29.91,East,86,3.1,3.1,37,0.00,,---,0.00,VWS V14.01,2013-09-30 19:49:00,
2013-09-30 12:54:00,80.6,52.0,29.91,NE,38,0.0,0.0,37,0.00,,---,0.00,VWS V14.01,2013-09-30 19:54:00,
2013-09-30 12:59:00,80.8,52.1,29.91,NNE,29,0.0,0.0,37,0.00,,---,0.00,VWS V14.01,2013-09-30 19:59:00,
2013-09-30 13:04:00,81.0,52.3,29.91,SSE,159,0.0,0.0,37,0.00,,---,0.00,VWS V14.01,2013-09-30 20:04:00,
2013-09-30 13:09:00,81.0,52.3,29.91,ENE,60,3.6,3.6,37,0.00,,---,0.00,VWS V14.01,2013-09-30 20:09:00,
2013-09-30 13:14:00,82.0,53.2,29.91,NNE,33,0.0,0.0,37,0.00,,---,0.00,VWS V14.01,2013-09-30 20:14:00,
2013-09-30 13:19:00,82.2,53.4,29.91,NE,44,3.6,5.8,37,0.00,,---,0.00,VWS V14.01,2013-09-30 20:19:00,
2013-09-30 13:24:00,82.4,53.5,29.91,NE,43,0.0,4.9,37,0.00,,---,0.00,VWS V14.01,2013-09-30 20:24:00,
2013-09-30 13:29:00,82.4,53.5,29.91,ENE,75,0.0,0.0,37,0.00,,---,0.00,VWS V14.01,2013-09-30 20:29:00,
2013-09-30 13:34:00,82.4,53.5,29.91,East,83,0.0,0.0,37,0.00,,---,0.00,VWS V14.01,2013-09-30 20:34:00,
2013-09-30 13:39:00,82.9,54.0,29.91,SE,128,2.7,2.7,37,0.00,,---,0.00,VWS V14.01,2013-09-30 20:39:00,
2013-09-30 13:45:00,82.9,54.0,29.91,NE,50,4.0,4.0,37,0.00,,---,0.00,VWS V14.01,2013-09-30 20:45:00,
2013-09-30 13:50:00,83.1,54.2,29.91,ENE,72,3.1,3.1,37,0.00,,---,0.00,VWS V14.01,2013-09-30 20:50:00,
2013-09-30 13:55:00,83.1,54.2,29.91,ENE,70,0.0,2.2,37,0.00,,---,0.00,VWS V14.01,2013-09-30 20:55:00,
2013-09-30 14:00:00,83.1,54.2,29.88,NNE,29,0.0,0.0,37,0.00,,---,0.00,VWS V14.01,2013-09-30 21:00:00,
2013-09-30 14:05:00,83.5,54.5,29.88,ENE,71,4.9,4.9,37,0.00,,---,0.00,VWS V14.01,2013-09-30 21:05:00,
2013-09-30 14:10:00,84.0,55.0,29.88,NNE,33,0.0,0.0,37,0.00,,---,0.00,VWS V14.01,2013-09-30 21:10:00,
2013-09-30 14:15:00,84.0,55.0,29.88,ENE,58,0.0,0.0,37,0.00,,---,0.00,VWS V14.01,2013-09-30 21:15:00,
2013-09-30 14:20:00,83.8,54.8,29.88,East,83,0.0,0.0,37,0.00,,---,0.00,VWS V14.01,2013-09-30 21:20:00,
2013-09-30 14:25:00,84.4,55.3,29.88,East,93,3.6,3.6,37,0.00,,---,0.00,VWS V14.01,2013-09-30 21:25:00,
2013-09-30 14:30:00,84.2,55.1,29.88,NE,43,5.8,5.8,37,0.00,,---,0.00,VWS V14.01,2013-09-30 21:30:00,
2013-09-30 14:35:00,84.4,55.3,29.88,East,89,3.6,3.6,37,0.00,,---,0.00,VWS V14.01,2013-09-30 21:35:00,
2013-09-30 14:40:00,84.6,55.5,29.88,ESE,103,3.1,3.6,37,0.00,,---,0.00,VWS V14.01,2013-09-30 21:40:00,
2013-09-30 14:45:00,84.7,55.6,29.88,SSE,159,0.0,0.0,37,0.00,,---,0.00,VWS V14.01,2013-09-30 21:45:00,
2013-09-30 14:50:00,85.6,56.4,29.88,ESE,115,0.0,0.0,37,0.00,,---,0.00,VWS V14.01,2013-09-30 21:50:00,
2013-09-30 14:55:00,85.5,56.2,29.88,North,357,0.0,0.0,37,0.00,,---,0.00,VWS V14.01,2013-09-30 21:55:00,
2013-09-30 15:00:00,85.5,56.2,29.85,WNW,293,0.0,0.0,37,0.00,,---,0.00,VWS V14.01,2013-09-30 22:00:00,
2013-09-30 15:05:00,85.5,56.2,29.85,NE,38,0.0,0.0,37,0.00,,---,0.00,VWS V14.01,2013-09-30 22:05:00,
2013-09-30 15:10:00,85.5,56.2,29.85,ENE,61,4.0,4.0,37,0.00,,---,0.00,VWS V14.01,2013-09-30 22:10:00,
2013-09-30 15:15:00,84.9,55.8,29.85,NE,37,0.0,0.0,37,0.00,,---,0.00,VWS V14.01,2013-09-30 22:15:00,
2013-09-30 15:20:00,85.1,55.9,29.85,East,88,0.0,0.0,37,0.00,,---,0.00,VWS V14.01,2013-09-30 22:20:00,
2013-09-30 15:25:00,85.3,56.1,29.85,ENE,57,3.1,3.1,37,0.00,,---,0.00,VWS V14.01,2013-09-30 22:25:00,
2013-09-30 15:30:00,85.3,56.1,29.85,East,95,0.0,0.0,37,0.00,,---,0.00,VWS V14.01,2013-09-30 22:30:00,
2013-09-30 15:35:00,85.1,55.9,29.85,ENE,61,0.0,0.0,37,0.00,,---,0.00,VWS V14.01,2013-09-30 22:35:00,
2013-09-30 15:40:00,84.9,55.8,29.85,ENE,62,0.0,0.0,37,0.00,,---,0.00,VWS V14.01,2013-09-30 22:40:00,
2013-09-30 15:45:00,85.1,55.9,29.85,ENE,65,2.7,5.8,37,0.00,,---,0.00,VWS V14.01,2013-09-30 22:45:00,
2013-09-30 15:51:00,85.1,55.9,29.85,NE,44,0.0,0.0,37,0.00,,---,0.00,VWS V14.01,2013-09-30 22:51:00,
2013-09-30 15:56:00,85.5,56.2,29.85,NNE,22,0.0,0.0,37,0.00,,---,0.00,VWS V14.01,2013-09-30 22:56:00,
2013-09-30 16:01:00,85.3,56.1,29.85,North,1,0.0,0.0,37,0.00,,---,0.00,VWS V14.01,2013-09-30 23:01:00,
2013-09-30 16:06:00,85.3,56.1,29.85,ENE,71,0.0,0.0,37,0.00,,---,0.00,VWS V14.01,2013-09-30 23:06:00,
2013-09-30 16:11:00,85.5,56.2,29.85,ENE,71,0.0,0.0,37,0.00,,---,0.00,VWS V14.01,2013-09-30 23:11:00,
2013-09-30 16:16:00,85.5,56.2,29.85,East,85,4.0,4.0,37,0.00,,---,0.00,VWS V14.01,2013-09-30 23:16:00,
2013-09-30 16:21:00,85.5,56.2,29.85,ESE,103,0.0,0.0,37,0.00,,---,0.00,VWS V14.01,2013-09-30 23:21:00,
2013-09-30 16:26:00,85.6,56.4,29.85,SE,142,0.0,3.6,37,0.00,,---,0.00,VWS V14.01,2013-09-30 23:26:00,
2013-09-30 16:31:00,85.8,56.6,29.85,North,2,0.0,0.0,37,0.00,,---,0.00,VWS V14.01,2013-09-30 23:31:00,
2013-09-30 16:36:00,85.6,56.4,29.85,ENE,75,0.0,0.0,37,0.00,,---,0.00,VWS V14.01,2013-09-30 23:36:00,
2013-09-30 16:41:00,85.5,56.2,29.85,ENE,75,0.0,0.0,37,0.00,,---,0.00,VWS V14.01,2013-09-30 23:41:00,
2013-09-30 16:46:00,85.3,56.1,29.85,ENE,75,0.0,0.0,37,0.00,,---,0.00,VWS V14.01,2013-09-30 23:46:00,
2013-09-30 16:51:00,85.1,55.9,29.85,North,0,0.0,0.0,37,0.00,,---,0.00,VWS V14.01,2013-09-30 23:51:00,
2013-09-30 16:56:00,84.7,55.6,29.85,North,0,0.0,0.0,37,0.00,,---,0.00,VWS V14.01,2013-09-30 23:56:00,
2013-09-30 17:01:00,84.0,55.0,29.85,ESE,119,5.4,5.4,37,0.00,,---,0.00,VWS V14.01,2013-10-01 00:01:00,
2013-09-30 17:06:00,84.0,55.0,29.85,SE,129,4.0,5.4,37,0.00,,---,0.00,VWS V14.01,2013-10-01 00:06:00,
2013-09-30 17:19:00,81.9,53.1,29.85,ESE,106,6.3,6.3,37,0.00,,---,0.00,VWS V14.01,2013-10-01 00:19:00,
2013-09-30 17:24:00,81.5,52.7,29.85,ESE,111,6.3,6.3,37,0.00,,---,0.00,VWS V14.01,2013-10-01 00:24:00,
2013-09-30 17:29:00,81.5,52.7,29.82,SE,125,5.4,5.4,37,0.00,,---,0.00,VWS V14.01,2013-10-01 00:29:00,
2013-09-30 17:34:00,80.4,51.8,29.82,SSE,162,5.8,5.8,37,0.00,,---,0.00,VWS V14.01,2013-10-01 00:34:00,
2013-09-30 17:39:00,80.1,51.5,29.85,SSE,155,3.1,3.1,37,0.00,,---,0.00,VWS V14.01,2013-10-01 00:39:00,
2013-09-30 17:44:00,79.7,51.2,29.85,SSE,159,0.0,3.1,37,0.00,,---,0.00,VWS V14.01,2013-10-01 00:44:00,
2013-09-30 17:49:00,79.2,50.7,29.85,SSE,164,0.0,0.0,37,0.00,,---,0.00,VWS V14.01,2013-10-01 00:49:00,
2013-09-30 17:54:00,78.3,50.6,29.85,SSE,161,0.0,0.0,38,0.00,,---,0.00,VWS V14.01,2013-10-01 00:54:00,
2013-09-30 17:59:00,77.5,50.0,29.85,South,178,0.0,0.0,38,0.00,,---,0.00,VWS V14.01,2013-10-01 00:59:00,
2013-09-30 18:04:00,76.8,49.3,29.85,SSE,165,0.0,0.0,38,0.00,,---,0.00,VWS V14.01,2013-10-01 01:04:00,
2013-09-30 18:09:00,76.3,48.8,29.85,SSE,168,0.0,0.0,38,0.00,,---,0.00,VWS V14.01,2013-10-01 01:09:00,
2013-09-30 18:14:00,76.3,48.8,29.85,South,169,0.0,0.0,38,0.00,,---,0.00,VWS V14.01,2013-10-01 01:14:00,
2013-09-30 18:19:00,75.2,47.9,29.85,South,172,0.0,4.0,38,0.00,,---,0.00,VWS V14.01,2013-10-01 01:19:00,
2013-09-30 18:24:00,75.0,47.7,29.85,South,174,2.7,3.6,38,0.00,,---,0.00,VWS V14.01,2013-10-01 01:24:00,
2013-09-30 18:30:00,75.4,48.0,29.85,South,180,4.5,4.5,38,0.00,,---,0.00,VWS V14.01,2013-10-01 01:30:00,
2013-09-30 18:35:00,75.6,48.2,29.85,SSE,163,0.0,3.6,38,0.00,,---,0.00,VWS V14.01,2013-10-01 01:35:00,
2013-09-30 18:40:00,75.6,48.2,29.85,South,173,4.9,5.4,38,0.00,,---,0.00,VWS V14.01,2013-10-01 01:40:00,
2013-09-30 18:45:00,76.3,48.8,29.85,South,175,8.1,8.1,38,0.00,,---,0.00,VWS V14.01,2013-10-01 01:45:00,
2013-09-30 18:50:00,76.5,49.0,29.85,SSE,155,2.7,2.7,38,0.00,,---,0.00,VWS V14.01,2013-10-01 01:50:00,
2013-09-30 18:55:00,76.3,48.8,29.85,SSE,162,3.6,3.6,38,0.00,,---,0.00,VWS V14.01,2013-10-01 01:55:00,
2013-09-30 19:00:00,76.1,48.7,29.85,SSE,158,5.4,5.4,38,0.00,,---,0.00,VWS V14.01,2013-10-01 02:00:00,
2013-09-30 19:05:00,75.9,48.5,29.85,South,174,0.0,0.0,38,0.00,,---,0.00,VWS V14.01,2013-10-01 02:05:00,
2013-09-30 19:11:00,75.7,48.4,29.85,SW,216,0.0,0.0,38,0.00,,---,0.00,VWS V14.01,2013-10-01 02:11:00,
2013-09-30 19:16:00,75.6,48.2,29.85,SW,220,0.0,0.0,38,0.00,,---,0.00,VWS V14.01,2013-10-01 02:16:00,
2013-09-30 19:21:00,75.4,48.0,29.85,SW,235,0.0,0.0,38,0.00,,---,0.00,VWS V14.01,2013-10-01 02:21:00,
2013-09-30 19:26:00,75.4,48.0,29.85,SSW,204,0.0,0.0,38,0.00,,---,0.00,VWS V14.01,2013-10-01 02:26:00,
2013-09-30 19:31:00,75.4,48.0,29.85,SSE,156,0.0,0.0,38,0.00,,---,0.00,VWS V14.01,2013-10-01 02:31:00,
2013-09-30 19:36:00,75.2,47.9,29.85,South,173,0.0,0.0,38,0.00,,---,0.00,VWS V14.01,2013-10-01 02:36:00,
2013-09-30 19:41:00,75.4,48.0,29.85,South,175,0.0,0.0,38,0.00,,---,0.00,VWS V14.01,2013-10-01 02:41:00,
2013-09-30 19:46:00,75.2,47.9,29.85,South,176,0.0,0.0,38,0.00,,---,0.00,VWS V14.01,2013-10-01 02:46:00,
2013-09-30 19:52:00,74.8,47.6,29.85,SSE,150,0.0,0.0,38,0.00,,---,0.00,VWS V14.01,2013-10-01 02:52:00,
2013-09-30 19:57:00,74.8,47.6,29.85,SSE,168,0.0,0.0,38,0.00,,---,0.00,VWS V14.01,2013-10-01 02:57:00,
2013-09-30 20:02:00,75.2,47.9,29.85,SSE,152,0.0,0.0,38,0.00,,---,0.00,VWS V14.01,2013-10-01 03:02:00,
2013-09-30 20:07:00,75.2,47.9,29.85,SW,228,0.0,0.0,38,0.00,,---,0.00,VWS V14.01,2013-10-01 03:07:00,
2013-09-30 20:12:00,75.2,47.9,29.85,WNW,286,0.0,0.0,38,0.00,,---,0.00,VWS V14.01,2013-10-01 03:12:00,
2013-09-30 20:17:00,74.7,47.4,29.85,NW,312,0.0,0.0,38,0.00,,---,0.00,VWS V14.01,2013-10-01 03:17:00,
2013-09-30 20:22:00,73.0,46.6,29.85,NNE,19,0.0,0.0,39,0.00,,---,0.00,VWS V14.01,2013-10-01 03:22:00,
2013-09-30 20:27:00,72.1,45.8,29.85,NE,38,0.0,0.0,39,0.00,,---,0.00,VWS V14.01,2013-10-01 03:27:00,
2013-09-30 20:32:00,71.8,45.5,29.85,West,265,0.0,0.0,39,0.00,,---,0.00,VWS V14.01,2013-10-01 03:32:00,
2013-09-30 20:37:00,71.8,45.5,29.85,West,265,0.0,0.0,39,0.00,,---,0.00,VWS V14.01,2013-10-01 03:37:00,
2013-09-30 20:42:00,69.8,43.8,29.85,West,267,0.0,0.0,39,0.00,,---,0.00,VWS V14.01,2013-10-01 03:42:00,
2013-09-30 20:47:00,68.7,43.5,29.85,West,269,0.0,0.0,40,0.00,,---,0.00,VWS V14.01,2013-10-01 03:47:00,
2013-09-30 20:53:00,68.4,43.1,29.85,West,272,2.7,3.1,40,0.00,,---,0.00,VWS V14.01,2013-10-01 03:53:00,
2013-09-30 20:58:00,67.3,42.2,29.88,WNW,286,0.0,0.0,40,0.00,,---,0.00,VWS V14.01,2013-10-01 03:58:00,
2013-09-30 21:01:00,67.3,42.2,29.88,West,274,0.0,0.0,40,0.00,,---,0.00,VWS V14.01,2013-10-01 04:01:00,
2013-09-30 21:02:00,66.6,41.5,29.88,West,270,4.0,4.0,40,0.00,,---,0.00,VWS V14.01,2013-10-01 04:02:00,
2013-09-30 21:03:00,66.6,41.5,29.88,West,271,4.0,4.0,40,0.00,,---,0.00,VWS V14.01,2013-10-01 04:03:00,
2013-09-30 21:07:00,66.4,41.3,29.88,West,267,3.1,3.1,40,0.00,,---,0.00,VWS V14.01,2013-10-01 04:07:00,
2013-09-30 21:12:00,66.0,41.0,29.88,West,269,5.8,5.8,40,0.00,,---,0.00,VWS V14.01,2013-10-01 04:12:00,
2013-09-30 21:17:00,66.0,41.0,29.88,West,261,3.1,3.1,40,0.00,,---,0.00,VWS V14.01,2013-10-01 04:17:00,
2013-09-30 21:22:00,66.0,41.0,29.88,WSW,257,0.0,0.0,40,0.00,,---,0.00,VWS V14.01,2013-10-01 04:22:00,
2013-09-30 21:27:00,65.8,40.9,29.88,West,264,0.0,0.0,40,0.00,,---,0.00,VWS V14.01,2013-10-01 04:27:00,
2013-09-30 21:32:00,65.8,40.9,29.88,West,264,0.0,0.0,40,0.00,,---,0.00,VWS V14.01,2013-10-01 04:32:00,
2013-09-30 21:37:00,65.7,40.7,29.88,West,265,0.0,0.0,40,0.00,,---,0.00,VWS V14.01,2013-10-01 04:37:00,
2013-09-30 21:42:00,65.8,40.9,29.88,West,268,0.0,0.0,40,0.00,,---,0.00,VWS V14.01,2013-10-01 04:42:00,
2013-09-30 21:48:00,65.8,40.9,29.88,West,268,0.0,0.0,40,0.00,,---,0.00,VWS V14.01,2013-10-01 04:48:00,
2013-09-30 21:53:00,65.7,40.7,29.88,West,268,0.0,0.0,40,0.00,,---,0.00,VWS V14.01,2013-10-01 04:53:00,
2013-09-30 21:58:00,65.1,40.2,29.88,West,267,0.0,0.0,40,0.00,,---,0.00,VWS V14.01,2013-10-01 04:58:00,
2013-09-30 22:03:00,64.8,39.9,29.88,West,267,0.0,0.0,40,0.00,,---,0.00,VWS V14.01,2013-10-01 05:03:00,
2013-09-30 22:08:00,64.4,39.6,29.88,West,267,0.0,0.0,40,0.00,,---,0.00,VWS V14.01,2013-10-01 05:08:00,
2013-09-30 22:14:00,63.7,39.6,29.88,West,267,0.0,0.0,41,0.00,,---,0.00,VWS V14.01,2013-10-01 05:14:00,
2013-09-30 22:19:00,63.5,39.4,29.88,West,267,0.0,0.0,41,0.00,,---,0.00,VWS V14.01,2013-10-01 05:19:00,
2013-09-30 22:24:00,63.9,39.7,29.88,West,268,0.0,0.0,41,0.00,,---,0.00,VWS V14.01,2013-10-01 05:24:00,
2013-09-30 22:29:00,64.2,40.0,29.88,West,267,0.0,0.0,41,0.00,,---,0.00,VWS V14.01,2013-10-01 05:29:00,
2013-09-30 22:34:00,64.2,40.0,29.88,West,267,0.0,0.0,41,0.00,,---,0.00,VWS V14.01,2013-10-01 05:34:00,
2013-09-30 22:39:00,63.9,39.7,29.88,West,267,0.0,0.0,41,0.00,,---,0.00,VWS V14.01,2013-10-01 05:39:00,
2013-09-30 22:44:00,63.5,39.4,29.88,West,267,0.0,0.0,41,0.00,,---,0.00,VWS V14.01,2013-10-01 05:44:00,
2013-09-30 22:50:00,63.5,39.4,29.88,West,267,0.0,0.0,41,0.00,,---,0.00,VWS V14.01,2013-10-01 05:50:00,
2013-09-30 22:55:00,63.1,39.1,29.88,West,267,0.0,0.0,41,0.00,,---,0.00,VWS V14.01,2013-10-01 05:55:00,
2013-09-30 23:00:00,62.6,38.6,29.88,West,267,0.0,0.0,41,0.00,,---,0.00,VWS V14.01,2013-10-01 06:00:00,
2013-09-30 23:05:00,62.4,38.4,29.88,West,268,0.0,0.0,41,0.00,,---,0.00,VWS V14.01,2013-10-01 06:05:00,
2013-09-30 23:10:00,62.1,38.1,29.88,WNW,301,0.0,0.0,41,0.00,,---,0.00,VWS V14.01,2013-10-01 06:10:00,
2013-09-30 23:15:00,62.2,38.3,29.88,WNW,297,0.0,0.0,41,0.00,,---,0.00,VWS V14.01,2013-10-01 06:15:00,
2013-09-30 23:20:00,62.2,38.3,29.88,WNW,297,0.0,0.0,41,0.00,,---,0.00,VWS V14.01,2013-10-01 06:20:00,
2013-09-30 23:25:00,61.7,37.8,29.88,WNW,297,0.0,0.0,41,0.00,,---,0.00,VWS V14.01,2013-10-01 06:25:00,
2013-09-30 23:30:00,61.7,37.8,29.91,WNW,297,0.0,0.0,41,0.00,,---,0.00,VWS V14.01,2013-10-01 06:30:00,
2013-09-30 23:36:00,61.3,37.5,29.91,WNW,297,0.0,0.0,41,0.00,,---,0.00,VWS V14.01,2013-10-01 06:36:00,
2013-09-30 23:41:00,61.2,37.3,29.91,WNW,297,0.0,0.0,41,0.00,,---,0.00,VWS V14.01,2013-10-01 06:41:00,
2013-09-30 23:46:00,60.6,37.4,29.91,WNW,297,0.0,0.0,42,0.00,,---,0.00,VWS V14.01,2013-10-01 06:46:00,
2013-09-30 23:51:00,59.9,36.8,29.91,WNW,297,0.0,0.0,42,0.00,,---,0.00,VWS V14.01,2013-10-01 06:51:00,
2013-09-30 23:56:00,59.9,36.8,29.88,WNW,297,0.0,0.0,42,0.00,,---,0.00,VWS V14.01,2013-10-01 06:56:00,